This is the latest recevied weather packets stored in our database for station/object VE7PRT-1. If no packets are shown the sender has not sent any weather packets the latest 10 day(s).
| Time | Temp. | Humidity | Pressure | Rain* | Wind** | Luminosity | Snow |
|---|---|---|---|---|---|---|---|
| 1787805851 | 15° C | 99% | 1016 hPa | 5.08 mm | - | - | - |
| 1787805081 | 15° C | 99% | 1016 hPa | 4.83 mm | - | - | - |
| 1787804308 | 15° C | 99% | 1016.1 hPa | 4.83 mm | - | - | - |
| 1787803456 | 15° C | 99% | 1016.1 hPa | 4.32 mm | - | - | - |
| 1787802696 | 15° C | 99% | 1016.2 hPa | 2.29 mm | - | - | - |
| 1787801961 | 15° C | 99% | 1016 hPa | 1.52 mm | - | - | - |
| 1787801181 | 15° C | 99% | 1016.1 hPa | 0.76 mm | - | - | - |
| 1787800300 | 15° C | 99% | 1016.1 hPa | 0.25 mm | - | - | - |
| 1787799536 | 15° C | 99% | 1016 hPa | 0 mm | - | - | - |
| 1787798721 | 15° C | 10% | - | 0 mm | - | - | - |
| 1787797996 | 15° C | 10% | - | 0 mm | - | - | - |
| 1787797216 | 15° C | 10% | - | 0 mm | - | - | - |
| 1787796361 | 15.56° C | 10% | - | 0 mm | - | - | - |
| 1787795486 | 15.56° C | 10% | - | 0 mm | - | - | - |
| 1787794656 | 15.56° C | 99% | 1016.1 hPa | 0 mm | - | - | - |
| 1787793856 | 16.11° C | 99% | 1016.3 hPa | 0 mm | - | - | - |
| 1787792971 | 16.11° C | 99% | 1016.2 hPa | 0 mm | - | - | - |
| 1787792251 | 16.11° C | 10% | - | 0 mm | - | - | - |
| 1787791516 | 16.11° C | 10% | - | 0 mm | - | - | - |
| 1787790693 | 16.67° C | 10% | - | 0 mm | - | - | - |
| 1787789831 | 16.11° C | 10% | - | 0 mm | - | - | - |
| 1787789041 | 16.11° C | 10% | - | 0 mm | - | - | - |
| 1787788214 | 16.11° C | 99% | 1016.5 hPa | 0 mm | - | - | - |
| 1787787411 | 16.11° C | 99% | 1016.5 hPa | 0 mm | - | - | - |
| 1787786546 | 16.11° C | 99% | 1016.7 hPa | 0 mm | - | - | - |
* Rain latest hour (hover to see other rain measurements)
** Current wind speed in m/s (hover to see current wind gust speed)